Regional Weather Roundup
Issued by NWS Sioux Falls, SD

Home | Current Version | Previous Version | Graphics & Text | Print | Product List | Glossary Off
Versions: 1 2 3 4 5 6 7 8 9 10 11 12 13 14 15 16 17 18 19 20 21 22 23 24 25 26 27 28 29 30 31 32 33 34 35 36 37 38 39 40 41 42 43 44 45 46 47 48 49 50

000
ASUS43 KFSD 231010
RWRFSD

WEATHER ROUNDUP FOR SE SOUTH DAKOTA/SW MINNESOTA/NW IOWA
NATIONAL WEATHER SERVICE SIOUX FALLS SD
500 AM CDT FRI JUN 23 2017

NOTE: "FAIR" INDICATES FEW OR NO CLOUDS BELOW 12,000 FEET WITH NO
SIGNIFICANT WEATHER AND OR OBSTRUCTIONS TO VISIBILITY.


SDZ038>040-050-052>070-231100-
SOUTHEAST SOUTH DAKOTA

CITY           SKY/WX    TMP DP  RH WIND       PRES   REMARKS
BROOKINGS      CLEAR     53  46  77 W8        29.87R
CHAMBERLAIN    CLOUDY    60  46  60 NW14G23   29.99R
HURON          MOCLDY    55  47  74 NW15      29.91S
MADISON        FAIR      54  45  71 NW13      29.89R
MITCHELL       CLOUDY    57  44  62 NW13      29.93R
SIOUX FALLS    PTCLDY    56  47  71 NW10      29.88R
WINNER         FAIR      60  41  49 NW20G26   30.03R
YANKTON        CLOUDY    60  46  59 NW15      29.92R
$$

MNZ071-072-080-081-089-090-097-098-231100-
SOUTHWEST MINNESOTA

CITY           SKY/WX    TMP DP  RH WIND       PRES   REMARKS
FAIRMONT       CLEAR     57  52  83 W8        29.77F
JACKSON        CLEAR     55  50  82 CALM      29.80R
LUVERNE        CLEAR     54  45  71 NW7       29.86R
MARSHALL       CLEAR     58  48  69 NW14      29.83R
MONTEVIDEO     CLEAR     57  48  72 N13       29.79S
PIPESTONE      CLEAR     57  46  67 NW10G17   29.86R
REDWOOD FALLS  CLEAR     59  52  77 NW10      29.78R
TRACY          CLEAR     60  51  72 NW12      29.82R
WINDOM         CLEAR     55  50  82 W8        29.79R
WORTHINGTON    CLEAR     57  50  77 W13       29.83R
$$

IAZ001>003-012>014-020>022-031-032-NEZ013-014-SDZ071-231100-
NORTHWEST IOWA

CITY           SKY/WX    TMP DP  RH WIND       PRES   REMARKS
CHEROKEE       CLEAR     54  53  99 CALM      29.83R
DENISON        CLEAR     55  54  94 CALM      29.83R
ESTHERVILLE    CLEAR     54  52  93 W9        29.78F
LE MARS        CLEAR     55  52  88 NW5       29.85R
ORANGE CITY    CLEAR     54  52  94 NW8       29.84F
SHELDON        CLEAR     54  50  87 W8        29.82S
SIOUX CITY       N/A    N/A N/A N/A MISG      29.85R
SPENCER        CLEAR     53  49  86 W7        29.81R
STORM LAKE     CLEAR     55  50  82 W8        29.83R
$$

ABBREVIATIONS USED IN REMARKS
   TC - TEMPERATURE IN CELSIUS
  WCI - WIND CHILL INDEX
   HX - HEAT INDEX
  VSB - VISIBILITY





USA.gov is the U.S. government's official web portal to all federal, state and local government web resources and services.